VOE2511 LIRF-LIEO

Flight info

Callsign VOE2511
Flight time 0h 34m
Altitude 19000
Route SOSAK5AXESINO8H/25 ESINO Z924 GITRI
Aircraft A320/M-SDE3FGHIRWY/LB1

Departure

Time 2026-05-04 19:25
Airport Rome–Fiumicino Leonardo da Vinci International Airport (LIRF)

Arrival

Time 2026-05-04 20:00
Airport Olbia Costa Smeralda Airport (LIEO)
Time Latitude Longitude Altitude Speed Heading
2026-05-04 18:55 41.79705 12.25845 16 ft 0 kts 115°
2026-05-04 19:12 41.79719 12.25805 15 ft 4 kts 105°
2026-05-04 19:12 41.79717 12.25775 15 ft 4 kts 48°
2026-05-04 19:13 41.79707 12.25763 18 ft 3 kts 25°
2026-05-04 19:13 41.79732 12.25778 17 ft 4 kts 25°
2026-05-04 19:13 41.79756 12.25793 14 ft 4 kts 25°
2026-05-04 19:13 41.79779 12.25808 14 ft 2 kts 25°
2026-05-04 19:14 41.79780 12.25809 14 ft 0 kts 25°
2026-05-04 19:16 41.79783 12.25810 14 ft 2 kts 25°
2026-05-04 19:16 41.79802 12.25822 16 ft 5 kts 25°
2026-05-04 19:16 41.79844 12.25833 14 ft 8 kts 351°
2026-05-04 19:17 41.79908 12.25846 14 ft 11 kts 16°
2026-05-04 19:17 41.79991 12.25897 16 ft 15 kts 25°
2026-05-04 19:17 41.80088 12.25956 14 ft 15 kts 24°
2026-05-04 19:17 41.80180 12.26012 15 ft 14 kts 24°
2026-05-04 19:18 41.80266 12.26064 15 ft 13 kts 25°
2026-05-04 19:18 41.80344 12.26112 14 ft 12 kts 25°
2026-05-04 19:18 41.80409 12.26153 16 ft 9 kts 25°
2026-05-04 19:18 41.80465 12.26174 16 ft 9 kts
2026-05-04 19:19 41.80525 12.26227 16 ft 14 kts 68°
2026-05-04 19:19 41.80566 12.26373 16 ft 20 kts 69°
2026-05-04 19:19 41.80620 12.26566 17 ft 25 kts 69°
2026-05-04 19:19 41.80681 12.26793 14 ft 27 kts 70°
2026-05-04 19:20 41.80746 12.27028 13 ft 26 kts 58°
2026-05-04 19:20 41.80869 12.27013 13 ft 18 kts 340°
2026-05-04 19:20 41.80960 12.26960 13 ft 7 kts 311°
2026-05-04 19:20 41.80958 12.26922 13 ft 0 kts 249°
2026-05-04 19:24 41.80957 12.26918 13 ft 3 kts 249°
2026-05-04 19:25 41.80866 12.26597 15 ft 75 kts 250°
2026-05-04 19:25 41.80608 12.25659 16 ft 137 kts 249°
2026-05-04 19:25 41.80225 12.24246 107 ft 177 kts 249°
2026-05-04 19:25 41.79837 12.22799 1119 ft 153 kts 244°
2026-05-04 19:26 41.79448 12.21472 1821 ft 157 kts 243°
2026-05-04 19:26 41.78954 12.20085 2219 ft 177 kts 233°
2026-05-04 19:26 41.78032 12.18863 2581 ft 198 kts 214°
2026-05-04 19:26 41.76825 12.17771 3073 ft 222 kts 210°
2026-05-04 19:27 41.75450 12.16607 3563 ft 244 kts 210°
2026-05-04 19:27 41.73986 12.15352 4354 ft 254 kts 211°
2026-05-04 19:27 41.72501 12.14044 5295 ft 258 kts 212°
2026-05-04 19:27 41.71004 12.12693 6213 ft 262 kts 213°
2026-05-04 19:28 41.69492 12.11304 7110 ft 265 kts 214°
2026-05-04 19:28 41.67964 12.09887 7991 ft 269 kts 214°
2026-05-04 19:28 41.66437 12.08465 8841 ft 273 kts 215°
2026-05-04 19:28 41.64873 12.07007 9742 ft 276 kts 215°
2026-05-04 19:29 41.63281 12.05521 10442 ft 286 kts 216°
2026-05-04 19:29 41.61589 12.03922 10724 ft 310 kts 217°
2026-05-04 19:29 41.59812 12.02119 11029 ft 330 kts 219°
2026-05-04 19:29 41.57994 12.00185 11655 ft 337 kts 220°
2026-05-04 19:30 41.56158 11.98201 12405 ft 342 kts 220°
2026-05-04 19:30 41.54298 11.96193 13153 ft 346 kts 220°
2026-05-04 19:30 41.52410 11.94164 13911 ft 350 kts 220°
2026-05-04 19:30 41.50526 11.92153 14567 ft 353 kts 220°
2026-05-04 19:31 41.48595 11.90107 15235 ft 356 kts 220°
2026-05-04 19:31 41.46645 11.88051 15903 ft 359 kts 220°
2026-05-04 19:31 41.44679 11.85984 16570 ft 362 kts 220°
2026-05-04 19:31 41.42693 11.83901 17231 ft 365 kts 220°
2026-05-04 19:32 41.40711 11.81771 17894 ft 367 kts 224°
2026-05-04 19:32 41.38989 11.79256 18519 ft 369 kts 234°
2026-05-04 19:32 41.37657 11.76316 18951 ft 372 kts 245°
2026-05-04 19:32 41.36738 11.73146 19083 ft 373 kts 250°
2026-05-04 19:33 41.35854 11.69832 19120 ft 386 kts 250°
2026-05-04 19:33 41.34943 11.66444 19121 ft 389 kts 250°
2026-05-04 19:33 41.34025 11.63058 19115 ft 390 kts 250°
2026-05-04 19:33 41.33101 11.59666 19113 ft 390 kts 250°
2026-05-04 19:34 41.32176 11.56275 19116 ft 390 kts 250°
2026-05-04 19:34 41.31248 11.52878 19113 ft 390 kts 250°
2026-05-04 19:34 41.30321 11.49489 19115 ft 390 kts 250°
2026-05-04 19:34 41.29392 11.46100 19113 ft 390 kts 250°
2026-05-04 19:35 41.28474 11.42757 19107 ft 390 kts 250°
2026-05-04 19:35 41.27542 11.39371 19107 ft 390 kts 250°
2026-05-04 19:35 41.26610 11.35984 19109 ft 390 kts 250°
2026-05-04 19:35 41.25679 11.32598 19107 ft 390 kts 250°
2026-05-04 19:36 41.24747 11.29214 19115 ft 390 kts 250°
2026-05-04 19:36 41.23814 11.25830 19117 ft 390 kts 250°
2026-05-04 19:36 41.22881 11.22448 19113 ft 390 kts 250°
2026-05-04 19:36 41.21944 11.19069 19105 ft 390 kts 250°
2026-05-04 19:37 41.21004 11.15687 19105 ft 390 kts 250°
2026-05-04 19:37 41.20082 11.12363 19106 ft 389 kts 250°
2026-05-04 19:37 41.19143 11.08983 19105 ft 390 kts 250°
2026-05-04 19:37 41.18205 11.05617 19106 ft 389 kts 250°
2026-05-04 19:38 41.17265 11.02247 19110 ft 389 kts 250°
2026-05-04 19:38 41.16326 10.98876 19099 ft 389 kts 250°
2026-05-04 19:38 41.15387 10.95508 19097 ft 389 kts 250°
2026-05-04 19:38 41.14447 10.92141 19097 ft 389 kts 250°
2026-05-04 19:39 41.13507 10.88776 19105 ft 389 kts 250°
2026-05-04 19:39 41.12577 10.85458 19092 ft 389 kts 249°
2026-05-04 19:39 41.11633 10.82095 19090 ft 389 kts 249°
2026-05-04 19:39 41.10690 10.78733 19090 ft 389 kts 249°
2026-05-04 19:40 41.09745 10.75372 19093 ft 389 kts 249°
2026-05-04 19:40 41.08796 10.72015 19091 ft 389 kts 249°
2026-05-04 19:40 41.07847 10.68659 19089 ft 389 kts 249°
2026-05-04 19:40 41.06898 10.65302 19090 ft 389 kts 249°
2026-05-04 19:41 41.05964 10.61992 19082 ft 389 kts 249°
2026-05-04 19:41 41.05014 10.58639 19084 ft 389 kts 249°
2026-05-04 19:41 41.04064 10.55294 19082 ft 389 kts 249°
2026-05-04 19:41 41.03111 10.51942 19081 ft 389 kts 249°
2026-05-04 19:42 41.02158 10.48597 19078 ft 389 kts 249°
2026-05-04 19:42 41.01202 10.45243 19076 ft 389 kts 249°
2026-05-04 19:42 41.00244 10.41899 19079 ft 389 kts 249°
2026-05-04 19:42 40.99285 10.38555 19080 ft 389 kts 249°
2026-05-04 19:43 40.98329 10.35213 19075 ft 389 kts 249°
2026-05-04 19:43 40.97385 10.31915 19077 ft 389 kts 249°
2026-05-04 19:43 40.96426 10.28572 19072 ft 388 kts 249°
2026-05-04 19:43 40.95472 10.25261 18910 ft 380 kts 249°
2026-05-04 19:44 40.94541 10.22031 18681 ft 372 kts 249°
2026-05-04 19:44 40.93645 10.18832 18453 ft 370 kts 252°
2026-05-04 19:44 40.93119 10.15536 18012 ft 366 kts 263°
2026-05-04 19:44 40.93105 10.12179 17473 ft 365 kts 274°
2026-05-04 19:45 40.93445 10.08860 16955 ft 363 kts 276°
2026-05-04 19:45 40.93788 10.05572 16426 ft 360 kts 275°
2026-05-04 19:45 40.94010 10.03398 16069 ft 359 kts 275°
2026-05-04 19:45 40.94441 9.99075 15365 ft 357 kts 275°
2026-05-04 19:46 40.94760 9.95826 14816 ft 356 kts 275°
2026-05-04 19:46 40.94908 9.92583 14276 ft 352 kts 265°
2026-05-04 19:46 40.94505 9.89442 14011 ft 340 kts 252°
2026-05-04 19:46 40.93640 9.86604 13896 ft 326 kts 241°
2026-05-04 19:47 40.92446 9.84136 13754 ft 313 kts 235°
2026-05-04 19:47 40.91239 9.81803 13636 ft 302 kts 234°
2026-05-04 19:47 40.90462 9.80303 13542 ft 295 kts 234°
2026-05-04 19:47 40.89322 9.78107 13409 ft 285 kts 234°
2026-05-04 19:48 40.87867 9.75305 13234 ft 273 kts 234°
2026-05-04 19:48 40.86805 9.73268 13042 ft 267 kts 234°
2026-05-04 19:48 40.85764 9.71274 12944 ft 262 kts 234°
2026-05-04 19:48 40.84730 9.69292 12830 ft 262 kts 234°
2026-05-04 19:49 40.84047 9.67985 12719 ft 261 kts 234°
2026-05-04 19:49 40.83019 9.66016 12548 ft 260 kts 234°
2026-05-04 19:49 40.81992 9.64057 12374 ft 259 kts 234°
2026-05-04 19:49 40.80966 9.62104 12198 ft 258 kts 235°
2026-05-04 19:50 40.79612 9.59526 11965 ft 257 kts 235°
2026-05-04 19:50 40.78596 9.57588 11792 ft 257 kts 235°
2026-05-04 19:50 40.77585 9.55655 11611 ft 255 kts 235°
2026-05-04 19:50 40.76917 9.54375 11506 ft 255 kts 235°
2026-05-04 19:51 40.75912 9.52451 11339 ft 255 kts 235°
2026-05-04 19:51 40.74909 9.50532 11164 ft 254 kts 235°
2026-05-04 19:51 40.73907 9.48614 10990 ft 253 kts 235°
2026-05-04 19:51 40.72902 9.46705 10820 ft 254 kts 235°
2026-05-04 19:52 40.71576 9.44185 10590 ft 252 kts 235°
2026-05-04 19:52 40.70579 9.42296 10426 ft 250 kts 235°
2026-05-04 19:52 40.69908 9.41025 10315 ft 250 kts 235°
2026-05-04 19:52 40.68931 9.39172 10148 ft 249 kts 235°
2026-05-04 19:53 40.68074 9.37197 9639 ft 252 kts 251°
2026-05-04 19:53 40.67911 9.34907 8947 ft 256 kts 276°
2026-05-04 19:53 40.68580 9.32731 8382 ft 260 kts 302°
2026-05-04 19:53 40.69714 9.30890 7936 ft 259 kts 305°
2026-05-04 19:54 40.70857 9.29061 7499 ft 259 kts 304°
2026-05-04 19:54 40.72003 9.27222 7056 ft 260 kts 304°
2026-05-04 19:54 40.73252 9.25541 6604 ft 258 kts 324°
2026-05-04 19:54 40.74970 9.24954 6123 ft 261 kts
2026-05-04 19:55 40.76642 9.25817 5610 ft 262 kts 39°
2026-05-04 19:55 40.77827 9.27545 5121 ft 253 kts 57°
2026-05-04 19:55 40.78747 9.29455 4595 ft 241 kts 62°
2026-05-04 19:55 40.79569 9.31312 4131 ft 227 kts 62°
2026-05-04 19:56 40.80362 9.33050 3672 ft 213 kts 61°
2026-05-04 19:56 40.81104 9.34636 3377 ft 193 kts 60°
2026-05-04 19:56 40.81786 9.36047 3105 ft 174 kts 59°
2026-05-04 19:56 40.82423 9.37329 2843 ft 161 kts 59°
2026-05-04 19:57 40.83024 9.38523 2589 ft 152 kts 58°
2026-05-04 19:57 40.83597 9.39653 2367 ft 148 kts 57°
2026-05-04 19:57 40.84169 9.40774 2138 ft 146 kts 58°
2026-05-04 19:57 40.84737 9.41878 1905 ft 144 kts 57°
2026-05-04 19:58 40.85295 9.42964 1691 ft 142 kts 57°
2026-05-04 19:58 40.85850 9.44038 1472 ft 141 kts 57°
2026-05-04 19:58 40.86402 9.45101 1262 ft 139 kts 57°
2026-05-04 19:58 40.86949 9.46154 1040 ft 139 kts 57°
2026-05-04 19:59 40.87490 9.47210 869 ft 138 kts 58°
2026-05-04 19:59 40.88026 9.48271 663 ft 139 kts 56°
2026-05-04 19:59 40.88582 9.49323 391 ft 141 kts 56°
2026-05-04 19:59 40.89131 9.50378 158 ft 143 kts 53°
2026-05-04 20:00 40.89694 9.51442 36 ft 135 kts 55°
2026-05-04 20:00 40.90150 9.52301 34 ft 90 kts 55°
2026-05-04 20:00 40.90405 9.52782 33 ft 40 kts 55°
2026-05-04 20:00 40.90512 9.52927 34 ft 14 kts
2026-05-04 20:01 40.90579 9.52860 34 ft 14 kts 283°
2026-05-04 20:01 40.90562 9.52725 34 ft 16 kts 254°
2026-05-04 20:01 40.90503 9.52589 34 ft 18 kts 236°
2026-05-04 20:01 40.90426 9.52441 34 ft 21 kts 236°
2026-05-04 20:02 40.90343 9.52279 34 ft 23 kts 236°
2026-05-04 20:02 40.90252 9.52105 34 ft 23 kts 236°
2026-05-04 20:02 40.90171 9.51946 34 ft 16 kts 253°
2026-05-04 20:02 40.90188 9.51837 32 ft 12 kts 290°
2026-05-04 20:03 40.90223 9.51764 34 ft 7 kts 258°
2026-05-04 20:03 40.90197 9.51711 34 ft 7 kts 236°
2026-05-04 20:03 40.90183 9.51662 34 ft 5 kts 285°
2026-05-04 20:03 40.90206 9.51634 34 ft 4 kts 327°
2026-05-04 20:04 40.90224 9.51618 34 ft 2 kts 325°
2026-05-04 20:04 40.90226 9.51616 34 ft 0 kts 325°